Terminal Aerodrome Forecast
Issued by NWS Charleston, WV

Current Version | Previous Version | Text Only | Print | Product List | Glossary Off
Versions: 1 2 3 4 5 6 7 8 9 10 11 12 13 14 15 16 17 18 19 20 21 22 23 24 25

000
FTUS41 KRLX 012320
TAFHTS
TAF
KHTS 012320Z 0200/0224 00000KT 6SM TSRA OVC080CB
     FM020100 VRB03KT P6SM SHRA VCTS BKN070CB
     FM020500 VRB03KT P6SM BKN050
     FM020800 VRB03KT 5SM BR BKN100
     FM021400 23007KT P6SM BKN040
     FM022100 24009KT P6SM SHRA VCTS OVC050CB=

USA.gov is the U.S. government's official web portal to all federal, state and local government web resources and services.